Weather History for Juneau, AK

Change the Weather History Date:

Sunday, January 6, 2013

  Actual Average Record
Temperature  
Mean Temperature 35 °F 28 °F  
Max Temperature 37 °F 33 °F 57 °F (1958)
Min Temperature 32 °F 24 °F -15 °F (1965)
Degree Days  
Heating Degree Days 30 37  
Month to date heating degree days 184 222  
Since 1 July heating degree days 4394 3943  
Moisture  
Dew Point 33 °F    
Average Humidity 91    
Maximum Humidity 100    
Minimum Humidity 82    
Precipitation  
Precipitation 0.01 in 0.18 in 1.72 in (2009)
Month to date precipitation 0.63 1.06  
Year to date precipitation 0.63 1.06  
Snow  
Snow 0.00 in 0.80 in 8.80 in (1994)
Month to date snowfall 2.9 4.4  
Since 1 July snowfall 46.6 33.9  
Snow Depth 3.00 in    
Sea Level Pressure  
Sea Level Pressure 29.65 in    
Wind  
Wind Speed 11 mph (East)    
Max Wind Speed 18 mph    
Max Gust Speed 22 mph    
Visibility 10 miles    
Events Rain    
T = Trace of Precipitation, MM = Missing Value Source: NWS Daily Summary

Daily Weather History Graph

Daily Weather History Graph

Search for Another Location

Airport:

Trip Planner

Search our weather history database for the weather conditions in past years. The results will help you decide how hot, cold, wet, or windy it might be!

Date:

Astronomy

Jan. 06, 2013 Rise Set
Actual Time 8:43 AM AKST 3:25 PM AKST
Civil Twilight 7:52 AM AKST 4:16 PM AKST
Nautical Twilight 7:00 AM AKST 5:09 PM AKST
Astronomical Twilight 6:11 AM AKST 5:57 PM AKST
Moon 2:34 AM AKST (1/6) 11:25 AM AKST (1/6)
Length of Visible Light 8h 24m
Length of Day
6h 42m
Waning Crescent, 31% of the Moon is Illuminated
Jan 6
Waning Crescent
Jan 11
New
Jan 18
First Quarter
Jan 26
Full
Feb 3
Last Quarter

Hourly Weather History & Observations

Time (AKST) Temp. Windchill Dew Point Humidity Pressure Visibility Wind Dir Wind Speed Gust Speed Precip Events Conditions
12:53 AM 35.1 °F 28.6 °F 33.1 °F 92% 29.70 in 10.0 mi ENE 8.1 mph - N/A   Overcast
1:53 AM 34.0 °F 29.8 °F 32.0 °F 92% 29.71 in 10.0 mi ESE 4.6 mph - N/A   Overcast
2:53 AM 33.1 °F 30.0 °F 32.0 °F 96% 29.72 in 10.0 mi ESE 3.5 mph - N/A   Overcast
3:53 AM 34.0 °F 28.8 °F 33.1 °F 96% 29.71 in 10.0 mi East 5.8 mph - N/A   Overcast
4:25 AM 34.0 °F 26.6 °F 33.1 °F 96% 29.70 in 10.0 mi ENE 9.2 mph - N/A   Mostly Cloudy
4:53 AM 34.0 °F 25.5 °F 32.0 °F 92% 29.70 in 10.0 mi East 11.5 mph - N/A   Overcast
5:53 AM 32.0 °F 23.0 °F 30.9 °F 96% 29.70 in 10.0 mi ENE 11.5 mph - N/A   Scattered Clouds
6:53 AM 33.1 °F 24.4 °F 32.0 °F 96% 29.69 in 10.0 mi East 11.5 mph - N/A   Scattered Clouds
7:53 AM 34.0 °F 25.0 °F 32.0 °F 92% 29.68 in 10.0 mi East 12.7 mph - N/A   Mostly Cloudy
8:53 AM 35.1 °F 26.9 °F 33.1 °F 92% 29.70 in 10.0 mi ENE 11.5 mph - N/A   Mostly Cloudy
9:53 AM 34.0 °F 26.0 °F 33.1 °F 96% 29.71 in 10.0 mi East 10.4 mph - 0.00 in Rain Light Rain
10:53 AM 35.1 °F 27.9 °F 33.1 °F 92% 29.71 in 10.0 mi East 9.2 mph - 0.00 in   Overcast
11:53 AM 36.0 °F 29.0 °F 33.1 °F 89% 29.70 in 10.0 mi East 9.2 mph - N/A   Overcast
12:53 PM 35.1 °F 25.9 °F 33.1 °F 92% 29.68 in 10.0 mi ESE 13.8 mph - N/A   Overcast
1:53 PM 36.0 °F 26.3 °F 33.1 °F 89% 29.68 in 10.0 mi East 16.1 mph - 0.00 in   Overcast
2:53 PM 36.0 °F 27.1 °F 33.1 °F 89% 29.67 in 10.0 mi East 13.8 mph - 0.00 in Rain Light Rain
3:53 PM 36.0 °F 26.3 °F 33.1 °F 89% 29.65 in 10.0 mi East 16.1 mph - 0.00 in   Overcast
4:53 PM 36.0 °F 27.5 °F 33.1 °F 89% 29.62 in 10.0 mi ESE 12.7 mph - 0.00 in Rain Light Rain
6:53 PM 36.0 °F 27.1 °F 32.0 °F 86% 29.59 in 10.0 mi SE 13.8 mph - N/A   Overcast
7:53 PM 36.0 °F 28.0 °F 33.1 °F 89% 29.56 in 10.0 mi East 11.5 mph - 0.00 in Rain Light Rain
8:53 PM 36.0 °F 28.0 °F 32.0 °F 86% 29.52 in 10.0 mi East 11.5 mph - 0.00 in   Overcast
9:53 PM 36.0 °F 29.0 °F 30.9 °F 82% 29.47 in 10.0 mi East 9.2 mph - 0.00 in   Overcast
10:53 PM 36.0 °F 30.3 °F 32.0 °F 86% 29.45 in 10.0 mi ENE 6.9 mph - 0.00 in Rain Light Rain
11:53 PM 35.1 °F 28.6 °F 33.1 °F 92% 29.43 in 10.0 mi ENE 8.1 mph - 0.01 in Rain Light Rain